Location: Unspecified
(0.0000°N, 0.0000°E)
Time: 04:54:15
(UTC+02:00)

Cosmos 2237 Rocket - Visible Passes

Search period start: 28 July 2016 00:00
Search period end: 07 August 2016 00:00
Orbit: 833 x 852 km, 71.0° (Epoch: 27 July)

Date Brightness Start Highest point End Pass type
(mag) Time Alt. Az. Time Alt. Az. Time Alt. Az.
28 Jul 3.0 06:55:49 10° S 07:01:17 52° ESE 07:06:46 10° NNE visible
29 Jul 3.1 06:41:02 10° S 06:46:28 49° ESE 06:51:54 10° NNE visible
30 Jul 3.2 06:26:19 10° S 06:31:40 45° ESE 06:37:02 10° NNE visible
31 Jul 3.2 06:13:03 18° SSE 06:16:51 42° ESE 06:22:09 10° NE visible
01 Aug 3.3 05:59:44 28° SSE 06:02:01 40° ESE 06:07:16 10° NE visible
01 Aug 3.9 07:43:04 10° WSW 07:45:47 14° WNW 07:48:33 10° NW visible
02 Aug 3.4 05:46:23 35° SE 05:47:12 37° ESE 05:52:23 10° NE visible
02 Aug 3.8 07:28:16 11° WSW 07:30:59 15° WNW 07:34:03 10° NW visible
03 Aug 3.6 05:32:57 34° E 05:32:57 34° E 05:37:29 10° NE visible
03 Aug 3.7 07:14:51 15° W 07:16:10 16° WNW 07:19:30 10° NW visible
04 Aug 4.1 05:19:28 26° ENE 05:19:28 26° ENE 05:22:34 10° NE visible
04 Aug 3.7 07:01:22 17° WNW 07:01:22 17° WNW 07:04:55 10° NW visible
05 Aug 4.5 05:05:54 18° ENE 05:05:54 18° ENE 05:07:40 10° NE visible
05 Aug 3.8 06:47:48 17° WNW 06:47:48 17° WNW 06:50:19 10° NNW visible
06 Aug 5.0 04:52:16 12° NE 04:52:16 12° NE 04:52:45 10° NE visible
06 Aug 4.0 06:34:09 15° NW 06:34:09 15° NW 06:35:42 10° NNW visible
